KT2UU-13 Weather Reports


Display with metric or nautical units.
time (UTC)temp
F
wind
direction
speed
MPH
gust
MPH
rain 1hr
in
rain 24hr
in
rain mn
in
humidity
%
barometer
mb
20260508142131 60 222 1.0 2.0 0.00 0.00 0.00 71 1019.0
20260508141628 61 222 1.0 2.0 0.00 0.00 0.00 69 1019.0
20260508141126 60 222 1.0 1.0 0.00 0.00 0.00 72 1019.2
20260508140623 60 217 1.0 1.0 0.00 0.00 0.00 76 1019.1
20260508140120 59 217 0.0 2.0 0.00 0.00 0.00 78 1018.9
20260508135614 59 219 0.0 0.0 0.00 0.00 0.00 80 1018.8
20260508135110 58 217 1.0 2.0 0.00 0.00 0.00 79 1018.9
20260508134608 59 219 0.0 0.0 0.00 0.00 0.00 79 1019.0
20260508134104 59 198 0.0 1.0 0.00 0.00 0.00 75 1019.2
20260508133601 59 219 0.0 0.0 0.00 0.00 0.00 76 1019.2
20260508133059 59 220 0.0 0.0 0.00 0.00 0.00 78 1019.0
20260508132551 58 217 1.0 1.0 0.00 0.00 0.00 82 1019.1
20260508132047 59 219 0.0 1.0 0.00 0.00 0.00 79 1018.9
20260508131542 58 197 0.0 1.0 0.00 0.00 0.00 81 1019.0
20260508131034 58 218 0.0 0.0 0.00 0.00 0.00 79 1019.0
20260508130531 58 219 1.0 1.0 0.00 0.00 0.00 79 1019.2
20260508130027 58 218 0.0 0.0 0.00 0.00 0.00 79 1019.3
20260508125523 58 218 0.0 0.0 0.00 0.00 0.00 80 1019.4
20260508125021 55 217 0.0 1.0 0.00 0.00 0.00 84 1019.3
20260508124519 56 335 0.0 0.0 0.00 0.00 0.00 82 1019.3
20260508124016 55 335 0.0 2.0 0.00 0.00 0.00 84 1019.4
20260508123514 55 326 0.0 2.0 0.00 0.00 0.00 85 1019.1
20260508123010 55 237 0.0 1.0 0.00 0.00 0.00 86 1019.0
20260508122508 54 236 0.0 0.0 0.00 0.00 0.00 89 1019.1
20260508122004 54 253 0.0 0.0 0.00 0.00 0.00 89 1019.1
20260508121502 53 248 0.0 0.0 0.00 0.00 0.00 91 1019.1
20260508121000 52 276 0.0 0.0 0.00 0.00 0.00 94 1019.0
20260508120457 51 277 0.0 0.0 0.00 0.00 0.00 96 1018.8
20260508115955 50 279 0.0 0.0 0.00 0.00 0.00 97 1018.7
20260508115453 50 279 0.0 0.0 0.00 0.00 0.00 98 1018.8
20260508114949 50 279 0.0 0.0 0.00 0.00 0.00 98 1018.5
20260508114446 49 279 0.0 0.0 0.00 0.00 0.00 99 1018.5
20260508113942 49 279 0.0 0.0 0.00 0.00 0.00 99 1018.3
20260508113440 48 279 0.0 0.0 0.00 0.00 0.00 99 1018.2
20260508112937 48 279 0.0 0.0 0.00 0.00 0.00 99 1017.9
20260508112434 48 279 0.0 0.0 0.00 0.00 0.00 99 1017.9
20260508111930 48 279 0.0 0.0 0.00 0.00 0.00 99 1017.8
20260508111428 47 279 0.0 0.0 0.00 0.00 0.00 99 1017.6
20260508110925 47 279 0.0 0.0 0.00 0.00 0.00 99 1017.6
20260508110423 47 279 0.0 0.0 0.00 0.00 0.00 99 1017.8
20260508105922 47 279 0.0 0.0 0.00 0.00 0.00 99 1017.6
20260508105418 47 279 0.0 0.0 0.00 0.00 0.00 99 1017.5
20260508104916 47 279 0.0 0.0 0.00 0.00 0.00 99 1017.3
20260508104413 47 279 0.0 0.0 0.00 0.00 0.00 99 1017.2
20260508103910 48 279 0.0 0.0 0.00 0.00 0.00 99 1017.2
20260508103407 47 279 0.0 0.0 0.00 0.00 0.00 99 1017.1
20260508102904 47 279 0.0 0.0 0.00 0.00 0.00 99 1017.1
20260508102403 47 279 0.0 0.0 0.00 0.00 0.00 98 1016.9
20260508101859 48 279 0.0 0.0 0.00 0.00 0.00 98 1016.9
20260508101356 48 279 0.0 0.0 0.00 0.00 0.00 98 1016.8
20260508100854 48 279 0.0 0.0 0.00 0.00 0.00 98 1016.6
20260508100353 48 279 0.0 0.0 0.00 0.00 0.00 98 1016.5
20260508095848 48 279 0.0 0.0 0.00 0.00 0.00 98 1016.5
20260508095346 48 279 0.0 0.0 0.00 0.00 0.00 98 1016.5
20260508094842 49 279 0.0 0.0 0.00 0.00 0.00 98 1016.6
20260508094339 49 279 0.0 0.0 0.00 0.00 0.00 98 1016.6
20260508093836 49 279 0.0 0.0 0.00 0.00 0.00 97 1016.5
20260508093334 49 279 0.0 0.0 0.00 0.00 0.00 97 1016.5
20260508092831 49 279 0.0 0.0 0.00 0.00 0.00 97 1016.5
20260508092329 49 279 0.0 0.0 0.00 0.00 0.00 96 1016.3
20260508091827 49 279 0.0 0.0 0.00 0.00 0.00 96 1016.3
20260508091323 49 279 0.0 0.0 0.00 0.00 0.00 95 1016.5
20260508090821 49 279 0.0 0.0 0.00 0.00 0.00 95 1016.6
20260508090320 49 279 0.0 0.0 0.00 0.00 0.00 95 1016.5
20260508085814 49 279 0.0 0.0 0.00 0.00 0.00 95 1016.4
20260508085312 49 257 0.0 0.0 0.00 0.00 0.00 95 1016.4
20260508084808 49 281 0.0 0.0 0.00 0.00 0.00 95 1016.3
20260508084305 50 281 0.0 0.0 0.00 0.00 0.00 96 1016.4
20260508083803 50 281 0.0 0.0 0.00 0.00 0.00 96 1016.5
20260508083300 50 281 0.0 0.0 0.00 0.00 0.00 96 1016.1
20260508082800 50 281 0.0 0.0 0.00 0.00 0.00 96 1016.2
20260508082258 50 282 0.0 0.0 0.00 0.00 0.00 96 1016.3
20260508081755 50 281 0.0 0.0 0.00 0.00 0.00 96 1016.2
20260508081252 50 282 0.0 0.0 0.00 0.00 0.00 96 1016.2
20260508080748 50 287 0.0 0.0 0.00 0.00 0.00 96 1016.4
20260508080247 50 287 0.0 0.0 0.00 0.00 0.00 96 1016.1
20260508075743 50 287 0.0 0.0 0.00 0.00 0.00 96 1016.3
20260508075240 50 255 0.0 0.0 0.00 0.00 0.00 97 1016.1
20260508074738 50 252 0.0 0.0 0.00 0.00 0.00 97 1016.3
20260508074235 50 255 0.0 0.0 0.00 0.00 0.00 97 1016.3
20260508073732 50 266 0.0 0.0 0.00 0.00 0.00 97 1016.3
20260508073230 50 245 0.0 0.0 0.00 0.00 0.00 97 1016.5
20260508072725 50 255 2.0 2.0 0.00 0.00 0.00 97 1016.5
20260508072223 50 0 0.0 0.0 0.00 0.00 0.00 97 1016.4
20260508071720 50 10 0.0 0.0 0.00 0.00 0.00 97 1016.7
20260508071218 50 0 0.0 0.0 0.00 0.00 0.00 97 1016.3
20260508070715 50 0 0.0 0.0 0.00 0.00 0.00 97 1016.5
20260508070214 51 0 0.0 0.0 0.00 0.00 0.00 97 1016.6
20260508065710 51 0 0.0 0.0 0.00 0.00 0.00 97 1016.7
20260508065209 51 0 0.0 0.0 0.00 0.00 0.00 97 1016.7
20260508064706 51 0 0.0 0.0 0.00 0.00 0.00 97 1016.6
20260508064204 51 0 0.0 0.0 0.00 0.00 0.00 97 1016.5
20260508063701 52 0 0.0 0.0 0.00 0.00 0.00 97 1016.7
20260508063159 52 0 0.0 0.0 0.00 0.00 0.00 97 1016.7
20260508062656 52 0 0.0 0.0 0.00 0.00 0.00 97 1016.6
20260508062153 52 0 0.0 0.0 0.00 0.00 0.00 97 1016.8
20260508061650 52 0 0.0 1.0 0.00 0.00 0.00 98 1016.8
20260508061148 52 0 1.0 1.0 0.00 0.00 0.00 98 1016.6
20260508060644 52 0 0.0 0.0 0.00 0.00 0.00 98 1016.8
20260508060141 52 0 0.0 0.0 0.00 0.00 0.00 98 1016.6
20260508055637 52 0 0.0 1.0 0.00 0.00 0.00 98 1016.8
20260508055134 53 0 0.0 0.0 0.00 0.00 0.00 98 1016.8
20260508054630 53 0 0.0 1.0 0.00 0.00 0.00 98 1016.8
20260508054128 53 0 0.0 0.0 0.00 0.00 0.00 98 1016.7
20260508053625 52 0 0.0 0.0 0.00 0.00 0.00 97 1016.6
20260508053122 53 0 0.0 0.0 0.00 0.00 0.00 97 1016.8
20260508052620 53 0 0.0 0.0 0.00 0.00 0.00 97 1016.8
20260508052116 53 0 0.0 0.0 0.00 0.00 0.00 96 1016.5
20260508051613 53 0 0.0 0.0 0.00 0.00 0.00 96 1016.6
20260508051108 53 0 0.0 0.0 0.00 0.00 0.00 95 1016.9
20260508050604 53 0 0.0 0.0 0.00 0.00 0.00 94 1016.8
20260508045558 54 0 0.0 0.0 0.00 0.00 0.00 94 1017.0
20260508045056 54 0 0.0 1.0 0.00 0.00 0.00 94 1017.0
20260508044553 55 229 0.0 1.0 0.00 0.00 0.00 93 1017.0
20260508044049 55 229 0.0 0.0 0.00 0.00 0.00 91 1016.9
20260508043546 55 228 0.0 1.0 0.00 0.00 0.00 91 1016.9
20260508043043 55 257 0.0 0.0 0.00 0.00 0.00 95 1016.7
20260508042539 55 274 0.0 0.0 0.00 0.00 0.00 95 1016.6
20260508042037 55 206 0.0 1.0 0.00 0.00 0.00 96 1016.6
20260508041533 55 206 0.0 0.0 0.00 0.00 0.00 95 1016.8
20260508041030 55 228 0.0 0.0 0.00 0.00 0.00 94 1016.8
20260508040527 55 228 0.0 0.0 0.00 0.00 0.00 94 1016.9
20260508040025 55 229 0.0 0.0 0.00 1.34 1.34 95 1016.7
20260508035521 54 248 0.0 1.0 0.00 1.34 1.34 96 1016.6
20260508035018 54 205 0.0 1.0 0.00 1.34 1.34 98 1016.6
20260508034515 54 224 0.0 0.0 0.00 1.34 1.34 99 1016.6
20260508034012 55 224 0.0 0.0 0.00 1.34 1.34 99 1016.8
20260508033510 55 203 0.0 0.0 0.00 1.34 1.34 99 1016.7
20260508033008 55 225 0.0 0.0 0.00 1.34 1.34 99 1016.7
20260508032504 55 225 0.0 0.0 0.00 1.34 1.34 99 1016.8
20260508032002 55 225 0.0 0.0 0.00 1.34 1.34 99 1016.7
20260508031459 55 224 0.0 0.0 0.00 1.34 1.34 99 1016.6
20260508030954 55 225 0.0 0.0 0.00 1.34 1.34 99 1016.5
20260508030451 55 225 0.0 0.0 0.00 1.34 1.34 99 1016.6
20260508025949 55 225 0.0 0.0 0.00 1.34 1.34 99 1016.6
20260508025445 55 225 0.0 0.0 0.00 1.34 1.34 99 1016.3
20260508024943 55 203 0.0 0.0 0.00 1.34 1.34 99 1016.4
20260508024438 56 225 0.0 0.0 0.00 1.34 1.34 99 1016.3
20260508023935 56 225 0.0 0.0 0.00 1.34 1.34 99 1016.5
20260508023432 56 225 0.0 0.0 0.00 1.34 1.34 99 1016.6
20260508022929 56 225 0.0 0.0 0.00 1.34 1.34 99 1016.4
20260508022425 56 225 0.0 0.0 0.00 1.34 1.34 99 1016.6
20260508021922 56 225 0.0 0.0 0.00 1.34 1.34 98 1016.3
20260508021418 56 225 0.0 0.0 0.00 1.34 1.34 98 1016.5
20260508020914 57 225 0.0 0.0 0.00 1.34 1.34 98 1016.5
20260508020412 57 204 0.0 0.0 0.00 1.34 1.34 98 1016.4
20260508015909 57 225 0.0 0.0 0.00 1.34 1.34 98 1016.1
20260508015407 58 225 0.0 0.0 0.00 1.34 1.34 98 1016.2
20260508014903 58 225 0.0 0.0 0.00 1.34 1.34 98 1016.0
20260508014400 58 225 0.0 0.0 0.00 1.34 1.34 98 1015.9
20260508013855 58 225 0.0 0.0 0.00 1.34 1.34 98 1015.8
20260508013352 58 225 0.0 0.0 0.00 1.34 1.34 97 1015.7
20260508012849 58 225 0.0 0.0 0.00 1.34 1.34 97 1015.5
20260508012346 58 225 0.0 0.0 0.00 1.34 1.34 96 1015.6
20260508011844 58 225 0.0 0.0 0.00 1.34 1.34 96 1015.5
20260508011342 58 225 0.0 0.0 0.00 1.34 1.34 96 1015.6
20260508010839 59 225 0.0 0.0 0.00 1.34 1.34 95 1015.5
20260508010336 59 225 0.0 0.0 0.00 1.34 1.34 95 1015.6
20260508005833 59 225 0.0 0.0 0.00 1.34 1.34 95 1015.4
20260508005330 60 225 0.0 0.0 0.00 1.34 1.34 94 1015.5
20260508004826 60 225 0.0 0.0 0.00 1.34 1.34 94 1015.4
20260508004322 60 225 0.0 0.0 0.00 1.34 1.34 94 1015.2
20260508003819 61 225 0.0 0.0 0.00 1.34 1.34 93 1015.3
20260508003316 61 225 0.0 0.0 0.00 1.34 1.34 93 1015.4
20260508002813 61 225 0.0 0.0 0.00 1.34 1.34 92 1015.2
20260508002310 62 225 0.0 0.0 0.00 1.34 1.34 92 1015.4
20260508001806 62 225 0.0 0.0 0.00 1.34 1.34 91 1015.3
20260508001302 63 225 0.0 0.0 0.00 1.34 1.34 89 1015.3
20260508000758 63 225 0.0 0.0 0.00 1.34 1.34 87 1015.1
20260508000257 64 225 0.0 0.0 0.00 1.34 1.34 86 1015.1
20260507235751 64 225 0.0 0.0 0.00 1.34 1.34 84 1014.9
20260507235249 64 225 0.0 0.0 0.00 1.34 1.34 83 1014.8
20260507234746 64 225 0.0 0.0 0.00 1.34 1.34 82 1014.8
20260507234242 65 225 0.0 0.0 0.00 1.34 1.34 81 1014.6
20260507233739 65 225 0.0 0.0 0.00 1.34 1.34 80 1014.6
20260507233237 65 225 0.0 0.0 0.00 1.34 1.34 80 1014.8
20260507232734 65 225 0.0 0.0 0.00 1.34 1.34 77 1014.9
20260507232231 66 206 0.0 0.0 0.00 1.34 1.34 77 1014.7
20260507231727 66 225 0.0 0.0 0.00 1.34 1.34 76 1014.6
20260507231225 66 225 0.0 1.0 0.00 1.34 1.34 75 1014.7
20260507230721 66 271 1.0 2.0 0.00 1.34 1.34 74 1014.7
20260507230219 66 252 1.0 2.0 0.00 1.34 1.34 75 1014.6
20260507225718 66 239 0.0 1.0 0.00 1.34 1.34 75 1014.6
20260507225215 66 251 0.0 2.0 0.00 1.34 1.34 75 1014.5
20260507224710 66 206 1.0 2.0 0.00 1.34 1.34 74 1014.7
20260507224207 66 266 2.0 3.0 0.00 1.34 1.34 74 1014.7
20260507223703 66 235 1.0 4.0 0.00 1.34 1.34 73 1014.4
20260507223201 67 197 1.0 4.0 0.00 1.34 1.34 72 1014.5
20260507222657 67 264 0.0 3.0 0.00 1.34 1.34 74 1014.5
20260507222153 67 236 2.0 3.0 0.00 1.34 1.34 73 1014.6
20260507221650 67 229 1.0 1.0 0.00 1.34 1.34 71 1014.6
20260507221146 66 227 3.0 4.0 0.00 1.34 1.34 71 1014.3
20260507220643 67 227 4.0 6.0 0.00 1.34 1.34 70 1014.6
20260507220142 67 155 2.0 6.0 0.00 1.34 1.34 71 1014.8
20260507215637 67 246 2.0 7.0 0.00 1.34 1.34 70 1014.8
20260507215135 67 257 1.0 4.0 0.00 1.34 1.34 70 1014.7
20260507214632 68 215 2.0 7.0 0.00 1.34 1.34 69 1014.4
20260507214128 67 254 4.0 7.0 0.00 1.34 1.34 70 1014.6
20260507213625 68 250 3.0 6.0 0.00 1.34 1.34 69 1014.7
20260507213122 68 236 4.0 8.0 0.00 1.34 1.34 69 1014.4
20260507212618 68 262 6.0 10.0 0.00 1.34 1.34 68 1014.3
20260507212115 68 115 1.0 3.0 0.00 1.34 1.34 72 1014.3
20260507211612 68 234 3.0 3.0 0.00 1.34 1.34 69 1014.2
20260507211107 67 246 0.0 1.0 0.00 1.34 1.34 71 1014.1
20260507210605 67 273 2.0 6.0 0.00 1.34 1.34 71 1014.0
20260507205558 68 255 4.0 8.0 0.00 1.34 1.34 69 1014.2
20260507205054 69 279 2.0 4.0 0.00 1.34 1.34 69 1014.1
20260507204551 69 336 1.0 6.0 0.00 1.34 1.34 72 1014.1
20260507204048 68 122 1.0 3.0 0.00 1.34 1.34 71 1014.0
20260507203546 67 340 0.0 2.0 0.00 1.34 1.34 75 1013.8
20260507203043 67 233 1.0 2.0 0.00 1.34 1.34 72 1013.8
20260507202539 67 222 0.0 2.0 0.00 1.34 1.34 74 1013.7
20260507202035 67 283 0.0 3.0 0.00 1.34 1.34 73 1013.8
20260507201531 67 194 2.0 2.0 0.00 1.34 1.34 73 1014.1
20260507201027 68 198 1.0 3.0 0.00 1.34 1.34 70 1014.1
20260507200523 69 219 2.0 6.0 0.00 1.34 1.34 68 1013.9
20260507200019 69 250 3.0 6.0 0.00 1.34 1.34 69 1013.9
20260507195517 68 186 2.0 6.0 0.00 1.34 1.34 74 1014.0
20260507195014 68 223 6.0 8.0 0.00 1.34 1.34 70 1014.1
20260507194510 67 235 4.0 4.0 0.00 1.34 1.34 72 1014.0
20260507194007 67 249 1.0 6.0 0.00 1.34 1.34 74 1014.2
20260507193504 67 264 1.0 3.0 0.00 1.34 1.34 74 1014.1
20260507193001 68 191 4.0 8.0 0.00 1.34 1.34 74 1014.3
20260507192456 67 236 4.0 9.0 0.00 1.34 1.34 74 1014.3
20260507191954 67 250 2.0 4.0 0.00 1.34 1.34 74 1014.4
20260507191449 66 296 3.0 6.0 0.00 1.34 1.34 77 1014.3
20260507190946 65 201 4.0 6.0 0.00 1.34 1.34 78 1014.6
20260507190444 67 204 4.0 6.0 0.00 1.34 1.34 76 1014.3
20260507185943 67 200 1.0 4.0 0.00 1.34 1.34 78 1014.3
20260507185439 67 208 2.0 2.0 0.00 1.34 1.34 77 1014.2
20260507184936 67 255 1.0 4.0 0.00 1.34 1.34 78 1014.5
20260507184434 66 266 1.0 9.0 0.00 1.34 1.34 77 1014.5
20260507183932 67 261 2.0 3.0 0.00 1.34 1.34 76 1014.6
20260507183428 67 250 1.0 2.0 0.00 1.34 1.34 79 1014.5
20260507182926 67 179 2.0 6.0 0.00 1.34 1.34 79 1014.4
20260507182421 66 279 1.0 1.0 0.00 1.34 1.34 79 1014.4
20260507181918 65 262 0.0 9.0 0.00 1.34 1.34 81 1014.5
20260507181414 65 185 2.0 3.0 0.00 1.34 1.34 80 1014.7
20260507180911 64 211 4.0 7.0 0.00 1.34 1.34 82 1014.8
20260507180407 64 247 3.0 4.0 0.00 1.34 1.34 81 1014.7
20260507175903 65 190 4.0 7.0 0.00 1.34 1.34 82 1014.9
20260507175400 64 122 1.0 6.0 0.00 1.34 1.34 85 1014.8
20260507174858 63 248 0.0 4.0 0.00 1.34 1.34 84 1014.8
20260507174355 62 249 1.0 4.0 0.00 1.34 1.34 86 1014.7
20260507173853 62 5 3.0 8.0 0.00 1.34 1.34 86 1015.0
20260507173349 62 207 2.0 6.0 0.00 1.34 1.34 85 1014.8
20260507172846 62 187 3.0 4.0 0.00 1.34 1.34 87 1014.9
20260507172342 62 220 0.0 4.0 0.00 1.34 1.34 87 1014.7
20260507171838 61 353 2.0 3.0 0.00 1.34 1.34 88 1014.6
20260507171335 60 350 0.0 2.0 0.00 1.34 1.34 90 1014.9
20260507170832 60 271 2.0 3.0 0.00 1.34 1.34 90 1014.9
20260507170329 59 261 3.0 6.0 0.00 1.34 1.34 91 1014.9
20260507165825 59 263 1.0 4.0 0.00 1.34 1.34 92 1015.2
20260507165321 58 208 2.0 7.0 0.00 1.34 1.34 94 1015.1
20260507164817 58 335 4.0 8.0 0.00 1.34 1.34 94 1015.1
20260507164314 59 211 4.0 8.0 0.00 1.34 1.34 94 1015.1
20260507163811 59 252 2.0 4.0 0.00 1.34 1.34 94 1015.1
20260507163309 59 235 4.0 7.0 0.00 1.34 1.34 94 1015.1
20260507162805 59 205 2.0 4.0 0.00 1.34 1.34 95 1014.9
20260507162301 60 194 2.0 6.0 0.00 1.34 1.34 94 1014.7
20260507161758 60 238 1.0 8.0 0.00 1.34 1.34 95 1014.7
20260507161254 60 251 5.0 7.0 0.00 1.34 1.34 94 1014.7
20260507160750 60 197 2.0 6.0 0.00 1.34 1.34 95 1014.6
20260507160247 59 226 4.0 7.0 0.00 1.34 1.34 95 1014.2
20260507155743 60 233 3.0 8.0 0.00 1.34 1.34 95 1014.4
20260507155239 59 259 2.0 6.0 0.00 1.34 1.34 96 1014.2
20260507154736 59 232 4.0 7.0 0.00 1.34 1.34 97 1014.3
20260507154234 59 317 3.0 7.0 0.00 1.34 1.34 97 1014.2
20260507153730 59 173 2.0 3.0 0.00 1.34 1.34 99 1014.3
20260507153226 59 231 1.0 3.0 0.00 1.34 1.34 99 1014.2
20260507152723 59 183 1.0 2.0 0.00 1.34 1.34 99 1014.0
20260507152219 59 224 2.0 3.0 0.00 1.34 1.34 99 1014.1
20260507151715 59 310 1.0 4.0 0.00 1.34 1.34 99 1014.0
20260507151212 59 130 0.0 2.0 0.00 1.34 1.34 99 1014.1
20260507150709 58 246 0.0 3.0 0.00 1.34 1.34 99 1013.9
20260507150206 58 234 2.0 10.0 0.00 1.34 1.34 99 1014.1
20260507145701 58 289 2.0 3.0 0.00 1.34 1.34 99 1014.0
20260507145158 58 249 1.0 3.0 0.00 1.34 1.34 99 1014.0
20260507144655 58 245 2.0 6.0 0.00 1.34 1.34 99 1013.9
20260507144153 58 218 1.0 8.0 0.00 1.34 1.34 99 1013.8
20260507143650 58 298 0.0 4.0 0.00 1.34 1.34 99 1013.8
20260507143147 58 221 2.0 3.0 0.00 1.34 1.34 99 1013.9
20260507142642 59 170 7.0 9.0 0.00 1.34 1.34 99 1013.8